Location: Marne
(34.0056°N, 117.9064°W)
Time: 06:16:00
(UTC+00:00)

Cosmos 1242 Rocket - Pass Details

Date: 18 January 2020
Orbit: 449 x 487 km, 81.2° (Epoch: 17 February)

Event Time Altitude Azimuth Distance (km) Brightness Sun altitude
Rises 01:55:52 0° 195° (SSW) 2,443 6.6 -10.2°
Reaches altitude 10° 01:57:56 10° 199° (SSW) 1,579 5.7 -10.6°
Maximum altitude 02:01:19 58° 279° (W) 536 3.1 -11.3°
Drops below altitude 10° 02:04:47 10° 360° (N) 1,607 5.0 -12.0°
Sets 02:06:55 0° 4° (N) 2,492 6.0 -12.4°
